Time,TemperatureF,DewpointF,PressureIn,WindDirection,WindDirectionDegrees,WindSpeedMPH,WindSpeedGustMPH,Humidity,HourlyPrecipIn,Conditions,Clouds,dailyrainin,SolarRadiationWatts/m^2,SoftwareType,DateUTC
2013-01-17 00:01:00,27.3,26.6,29.76,WSW,240,0.0,2.0,97,0.00,,OVC019,0.00,0.00,VWS V14.01,2013-01-17 05:01:00,
2013-01-17 00:11:00,26.7,26.0,29.76,West,275,1.0,2.0,97,0.00,,OVC019,0.00,0.00,VWS V14.01,2013-01-17 05:11:00,
2013-01-17 00:21:00,25.6,24.6,29.77,West,275,0.0,1.0,96,0.00,,OVC019,0.00,0.00,VWS V14.01,2013-01-17 05:21:00,
2013-01-17 00:31:00,25.4,24.7,29.77,West,275,0.0,0.0,97,0.00,,OVC019,0.00,0.00,VWS V14.01,2013-01-17 05:31:00,
2013-01-17 00:41:00,25.1,24.4,29.77,NW,317,0.0,3.0,97,0.00,,CLR,0.00,0.00,VWS V14.01,2013-01-17 05:41:00,
2013-01-17 00:51:00,24.2,23.2,29.77,NW,317,0.0,2.0,96,0.00,,CLR,0.00,0.00,VWS V14.01,2013-01-17 05:51:00,
2013-01-17 01:01:00,23.6,22.6,29.78,NW,317,0.0,0.0,96,0.00,,CLR,0.00,0.00,VWS V14.01,2013-01-17 06:01:00,
2013-01-17 01:11:00,23.9,23.2,29.78,NW,317,0.0,1.0,97,0.00,,CLR,0.00,0.00,VWS V14.01,2013-01-17 06:11:00,
2013-01-17 01:21:00,23.5,22.5,29.78,NW,317,0.0,1.0,96,0.00,,CLR,0.00,0.00,VWS V14.01,2013-01-17 06:21:00,
2013-01-17 01:31:00,24.2,23.5,29.78,West,280,0.0,2.0,97,0.00,,CLR,0.00,0.00,VWS V14.01,2013-01-17 06:31:00,
2013-01-17 01:41:00,25.7,25.2,29.78,WSW,245,1.0,3.0,98,0.00,,CLR,0.00,0.00,VWS V14.01,2013-01-17 06:41:00,
2013-01-17 01:51:00,26.0,25.5,29.77,WSW,255,0.0,4.0,98,0.00,,CLR,0.00,0.00,VWS V14.01,2013-01-17 06:51:00,
2013-01-17 02:01:00,26.0,25.3,29.79,WSW,247,1.0,3.0,97,0.00,,CLR,0.00,0.00,VWS V14.01,2013-01-17 07:01:00,
2013-01-17 02:11:00,26.1,25.4,29.79,WSW,258,1.0,4.0,97,0.00,,CLR,0.00,0.00,VWS V14.01,2013-01-17 07:11:00,
2013-01-17 02:21:00,25.8,25.1,29.79,WSW,246,5.0,6.0,97,0.00,,CLR,0.00,0.00,VWS V14.01,2013-01-17 07:21:00,
2013-01-17 02:31:00,26.0,25.3,29.79,WSW,257,0.0,6.0,97,0.00,,CLR,0.00,0.00,VWS V14.01,2013-01-17 07:31:00,
2013-01-17 02:41:00,26.3,25.8,29.79,WSW,249,4.0,6.0,98,0.00,,CLR,0.00,0.00,VWS V14.01,2013-01-17 07:41:00,
2013-01-17 02:51:00,26.0,25.3,29.78,WSW,257,3.0,5.0,97,0.00,,CLR,0.00,0.00,VWS V14.01,2013-01-17 07:51:00,
2013-01-17 03:01:00,26.1,25.4,29.78,SW,227,1.0,4.0,97,0.00,,CLR,0.00,0.00,VWS V14.01,2013-01-17 08:01:00,
2013-01-17 03:11:00,26.1,25.4,29.78,WSW,252,1.0,4.0,97,0.00,,CLR,0.00,0.00,VWS V14.01,2013-01-17 08:11:00,
2013-01-17 03:21:00,25.7,25.0,29.77,WSW,252,1.0,3.0,97,0.00,,CLR,0.00,0.00,VWS V14.01,2013-01-17 08:21:00,
2013-01-17 03:31:00,25.4,24.7,29.77,WSW,252,1.0,2.0,97,0.00,,CLR,0.00,0.00,VWS V14.01,2013-01-17 08:31:00,
2013-01-17 03:41:00,25.1,24.4,29.77,WSW,252,0.0,3.0,97,0.00,,CLR,0.00,0.00,VWS V14.01,2013-01-17 08:41:00,
2013-01-17 03:51:00,25.0,24.3,29.76,WSW,252,3.0,3.0,97,0.00,,CLR,0.00,0.00,VWS V14.01,2013-01-17 08:51:00,
2013-01-17 04:01:00,24.1,23.1,29.77,WSW,252,0.0,3.0,96,0.00,,CLR,0.00,0.00,VWS V14.01,2013-01-17 09:01:00,
2013-01-17 04:11:00,23.6,22.9,29.77,WSW,252,0.0,2.0,97,0.00,,CLR,0.00,0.00,VWS V14.01,2013-01-17 09:11:00,
2013-01-17 04:21:00,23.5,22.5,29.78,WSW,252,0.0,0.0,96,0.00,,CLR,0.00,0.00,VWS V14.01,2013-01-17 09:21:00,
2013-01-17 04:31:00,23.2,22.2,29.78,WSW,252,0.0,0.0,96,0.00,,CLR,0.00,0.00,VWS V14.01,2013-01-17 09:31:00,
2013-01-17 04:41:00,23.3,22.6,29.78,WSW,252,0.0,1.0,97,0.00,,CLR,0.00,0.00,VWS V14.01,2013-01-17 09:41:00,
2013-01-17 04:51:00,23.0,22.0,29.78,WSW,252,0.0,2.0,96,0.00,,CLR,0.00,0.00,VWS V14.01,2013-01-17 09:51:00,
2013-01-17 05:01:00,23.0,22.0,29.78,WSW,252,0.0,2.0,96,0.00,,CLR,0.00,0.00,VWS V14.01,2013-01-17 10:01:00,
2013-01-17 05:11:00,23.9,23.2,29.78,WSW,252,0.0,1.0,97,0.00,,CLR,0.00,0.00,VWS V14.01,2013-01-17 10:11:00,
2013-01-17 05:21:00,26.0,25.5,29.78,SSW,209,3.0,9.0,98,0.00,,CLR,0.00,0.00,VWS V14.01,2013-01-17 10:21:00,
2013-01-17 05:31:00,26.6,26.1,29.78,SW,226,2.0,7.0,98,0.00,,CLR,0.00,0.00,VWS V14.01,2013-01-17 10:31:00,
2013-01-17 05:41:00,27.0,26.5,29.78,SW,236,4.0,7.0,98,0.00,,OVC041,0.00,0.00,VWS V14.01,2013-01-17 10:41:00,
2013-01-17 05:51:00,27.2,26.5,29.77,WSW,258,4.0,9.0,97,0.00,,OVC041,0.00,0.00,VWS V14.01,2013-01-17 10:51:00,
2013-01-17 06:01:00,27.3,26.8,29.79,SW,235,0.0,7.0,98,0.00,,OVC041,0.00,0.00,VWS V14.01,2013-01-17 11:01:00,
2013-01-17 06:11:00,27.5,27.0,29.79,WNW,290,5.0,5.0,98,0.00,,OVC041,0.00,0.00,VWS V14.01,2013-01-17 11:11:00,
2013-01-17 06:21:00,27.2,26.5,29.79,West,281,3.0,6.0,97,0.00,,OVC041,0.00,0.00,VWS V14.01,2013-01-17 11:21:00,
2013-01-17 06:31:00,26.7,26.0,29.79,West,281,0.0,3.0,97,0.00,,OVC041,0.00,0.00,VWS V14.01,2013-01-17 11:31:00,
2013-01-17 06:41:00,26.4,25.7,29.79,West,281,0.0,2.0,97,0.00,,BKN049,0.00,0.00,VWS V14.01,2013-01-17 11:41:00,
2013-01-17 06:51:00,26.0,25.3,29.79,West,281,2.0,3.0,97,0.00,,BKN049,0.00,0.00,VWS V14.01,2013-01-17 11:51:00,
2013-01-17 07:11:00,25.1,24.4,29.81,West,281,0.0,2.0,97,0.00,,BKN049,0.00,0.00,VWS V14.01,2013-01-17 12:11:00,
2013-01-17 07:21:00,25.8,25.1,29.81,West,281,0.0,0.0,97,0.00,,BKN049,0.00,0.00,VWS V14.01,2013-01-17 12:21:00,
2013-01-17 07:31:00,26.6,25.9,29.81,West,281,0.0,0.0,97,0.00,,BKN049,0.00,0.00,VWS V14.01,2013-01-17 12:31:00,
2013-01-17 07:41:00,27.0,26.3,29.81,West,281,1.0,3.0,97,0.00,,BKN060,0.00,5.00,VWS V14.01,2013-01-17 12:41:00,
2013-01-17 07:51:00,28.1,27.6,29.82,WSW,252,5.0,5.0,98,0.00,,BKN060,0.00,7.00,VWS V14.01,2013-01-17 12:51:00,
2013-01-17 08:01:00,28.8,28.3,29.82,West,266,3.0,5.0,98,0.00,,BKN060,0.00,11.00,VWS V14.01,2013-01-17 13:01:00,
2013-01-17 08:11:00,29.7,29.0,29.82,WSW,244,5.0,8.0,97,0.00,,BKN060,0.00,12.00,VWS V14.01,2013-01-17 13:11:00,
2013-01-17 08:21:00,30.6,29.6,29.84,WSW,253,9.0,11.0,96,0.00,,BKN060,0.00,16.00,VWS V14.01,2013-01-17 13:21:00,
2013-01-17 08:31:00,31.5,30.2,29.85,West,260,9.0,14.0,95,0.00,,BKN060,0.00,21.00,VWS V14.01,2013-01-17 13:31:00,
2013-01-17 08:41:00,32.1,29.8,29.85,WSW,245,5.0,12.0,91,0.00,,CLR,0.00,18.00,VWS V14.01,2013-01-17 13:41:00,
2013-01-17 08:51:00,32.4,29.8,29.85,West,275,9.0,10.0,90,0.00,,CLR,0.00,21.00,VWS V14.01,2013-01-17 13:51:00,
2013-01-17 09:01:00,32.8,29.9,29.85,WSW,245,6.0,10.0,89,0.00,,CLR,0.00,25.00,VWS V14.01,2013-01-17 14:01:00,
2013-01-17 09:11:00,33.4,29.7,29.85,West,260,9.0,13.0,86,0.00,,CLR,0.00,25.00,VWS V14.01,2013-01-17 14:11:00,
2013-01-17 09:21:00,34.0,29.4,29.85,SW,233,11.0,12.0,83,0.00,,CLR,0.00,30.00,VWS V14.01,2013-01-17 14:21:00,
2013-01-17 09:31:00,34.4,29.2,29.85,WSW,254,10.0,18.0,81,0.00,,CLR,0.00,28.00,VWS V14.01,2013-01-17 14:31:00,
2013-01-17 09:41:00,34.9,29.4,29.85,West,276,16.0,17.0,80,0.00,,CLR,0.00,35.00,VWS V14.01,2013-01-17 14:41:00,
2013-01-17 09:51:00,35.2,29.0,29.85,West,264,11.0,17.0,78,0.00,,CLR,0.00,46.00,VWS V14.01,2013-01-17 14:51:00,
2013-01-17 10:01:00,35.5,29.3,29.86,West,269,10.0,15.0,78,0.00,,CLR,0.00,37.00,VWS V14.01,2013-01-17 15:01:00,
2013-01-17 10:11:00,35.5,29.3,29.86,WSW,256,11.0,13.0,78,0.00,,CLR,0.00,77.00,VWS V14.01,2013-01-17 15:11:00,
2013-01-17 10:21:00,36.2,29.4,29.85,WSW,255,14.0,17.0,76,0.01,,CLR,0.01,104.00,VWS V14.01,2013-01-17 15:21:00,
2013-01-17 10:31:00,36.0,29.2,29.86,West,259,13.0,19.0,76,0.01,,CLR,0.01,142.00,VWS V14.01,2013-01-17 15:31:00,
2013-01-17 10:41:00,36.2,29.4,29.86,West,266,21.0,22.0,76,0.01,,CLR,0.01,151.00,VWS V14.01,2013-01-17 15:41:00,
2013-01-17 10:51:00,36.2,29.0,29.86,West,280,18.0,23.0,75,0.01,,CLR,0.01,67.00,VWS V14.01,2013-01-17 15:51:00,
2013-01-17 11:01:00,35.8,28.7,29.86,West,274,9.0,22.0,75,0.01,,CLR,0.01,63.00,VWS V14.01,2013-01-17 16:01:00,
2013-01-17 11:11:00,36.0,28.9,29.86,West,262,16.0,21.0,75,0.01,,CLR,0.01,158.00,VWS V14.01,2013-01-17 16:11:00,
2013-01-17 11:21:00,36.2,28.7,29.86,West,264,13.0,20.0,74,0.01,,CLR,0.01,102.00,VWS V14.01,2013-01-17 16:21:00,
2013-01-17 11:31:00,36.6,29.1,29.87,West,274,16.0,22.0,74,0.00,,CLR,0.01,237.00,VWS V14.01,2013-01-17 16:31:00,
2013-01-17 11:41:00,37.2,28.7,29.87,West,276,16.0,22.0,71,0.02,,SCT038,0.03,144.00,VWS V14.01,2013-01-17 16:41:00,
2013-01-17 11:51:00,37.0,28.8,29.87,WSW,238,13.0,23.0,72,0.02,,SCT038,0.03,141.00,VWS V14.01,2013-01-17 16:51:00,
2013-01-17 12:01:00,36.6,28.8,29.88,West,274,9.0,18.0,73,0.03,,SCT038,0.04,35.00,VWS V14.01,2013-01-17 17:01:00,
2013-01-17 12:11:00,34.9,28.8,29.88,NNE,20,8.0,24.0,78,0.04,,SCT032,0.05,51.00,VWS V14.01,2013-01-17 17:11:00,
2013-01-17 12:21:00,33.8,28.6,29.90,NW,319,4.0,15.0,81,0.04,,SCT032,0.05,139.00,VWS V14.01,2013-01-17 17:21:00,
2013-01-17 12:31:00,34.0,28.5,29.91,NNW,338,5.0,12.0,80,0.05,,SCT032,0.06,221.00,VWS V14.01,2013-01-17 17:31:00,
2013-01-17 12:41:00,33.8,26.7,29.91,WNW,283,10.0,19.0,75,0.06,,BKN036,0.07,250.00,VWS V14.01,2013-01-17 17:41:00,
2013-01-17 12:51:00,34.1,26.4,29.91,WNW,288,6.0,18.0,73,0.04,,BKN036,0.07,267.00,VWS V14.01,2013-01-17 17:51:00,
2013-01-17 13:01:00,33.5,24.8,29.92,WNW,297,12.0,20.0,70,0.05,,BKN036,0.08,207.00,VWS V14.01,2013-01-17 18:01:00,
2013-01-17 13:11:00,32.8,23.4,29.92,NW,310,7.0,21.0,68,0.04,,OVC036,0.08,178.00,VWS V14.01,2013-01-17 18:11:00,
2013-01-17 13:21:00,32.7,22.6,29.94,NW,311,12.0,17.0,66,0.04,,OVC036,0.09,199.00,VWS V14.01,2013-01-17 18:21:00,
2013-01-17 13:31:00,32.2,20.7,29.95,WNW,295,9.0,23.0,62,0.04,,OVC036,0.09,156.00,VWS V14.01,2013-01-17 18:31:00,
2013-01-17 13:41:00,31.8,19.9,29.95,WSW,252,13.0,20.0,61,0.04,,SCT060,0.10,144.00,VWS V14.01,2013-01-17 18:41:00,
2013-01-17 13:51:00,31.5,20.0,29.95,WNW,301,12.0,19.0,62,0.03,,SCT060,0.10,151.00,VWS V14.01,2013-01-17 18:51:00,
2013-01-17 14:01:00,31.0,19.1,29.95,WNW,287,6.0,19.0,61,0.03,,SCT060,0.10,125.00,VWS V14.01,2013-01-17 19:01:00,
2013-01-17 14:11:00,30.7,19.2,29.95,WNW,289,11.0,21.0,62,0.02,,SCT060,0.10,105.00,VWS V14.01,2013-01-17 19:11:00,
2013-01-17 14:21:00,30.3,18.5,29.95,North,351,6.0,17.0,61,0.02,,SCT060,0.10,97.00,VWS V14.01,2013-01-17 19:21:00,
2013-01-17 14:31:00,29.5,18.1,29.97,NNE,15,5.0,11.0,62,0.01,,SCT060,0.10,83.00,VWS V14.01,2013-01-17 19:31:00,
2013-01-17 14:51:00,29.0,16.9,29.98,NNE,31,5.0,11.0,60,0.01,,CLR,0.11,93.00,VWS V14.01,2013-01-17 19:51:00,
2013-01-17 15:01:00,28.7,17.0,29.99,North,359,4.0,14.0,61,0.01,,CLR,0.11,88.00,VWS V14.01,2013-01-17 20:01:00,
2013-01-17 15:11:00,28.4,16.3,29.99,WNW,297,3.0,10.0,60,0.01,,CLR,0.11,79.00,VWS V14.01,2013-01-17 20:11:00,
2013-01-17 15:21:00,28.1,16.4,29.99,North,1,0.0,7.0,61,0.01,,CLR,0.11,70.00,VWS V14.01,2013-01-17 20:21:00,
2013-01-17 15:31:00,27.8,15.4,30.00,NNW,345,2.0,14.0,59,0.01,,CLR,0.11,56.00,VWS V14.01,2013-01-17 20:31:00,
2013-01-17 15:41:00,27.3,14.1,30.00,NW,324,7.0,13.0,57,0.01,,CLR,0.11,51.00,VWS V14.01,2013-01-17 20:41:00,
2013-01-17 15:51:00,26.9,13.7,30.02,WNW,298,7.0,14.0,57,0.01,,CLR,0.11,35.00,VWS V14.01,2013-01-17 20:51:00,
2013-01-17 16:01:00,26.7,13.5,30.02,WNW,297,6.0,15.0,57,0.00,,CLR,0.11,30.00,VWS V14.01,2013-01-17 21:01:00,
2013-01-17 16:11:00,26.4,12.8,30.02,WNW,300,6.0,12.0,56,0.00,,CLR,0.11,16.00,VWS V14.01,2013-01-17 21:11:00,
2013-01-17 16:21:00,26.1,12.2,30.02,NW,307,5.0,13.0,55,0.00,,CLR,0.11,9.00,VWS V14.01,2013-01-17 21:21:00,
2013-01-17 16:31:00,25.8,11.9,30.02,NNW,340,12.0,13.0,55,0.00,,CLR,0.11,0.00,VWS V14.01,2013-01-17 21:31:00,
2013-01-17 16:41:00,25.4,13.1,30.02,WNW,283,11.0,16.0,59,0.00,,CLR,0.11,0.00,VWS V14.01,2013-01-17 21:41:00,
2013-01-17 16:51:00,24.8,11.7,30.03,WNW,283,14.0,19.0,57,0.00,,CLR,0.11,0.00,VWS V14.01,2013-01-17 21:51:00,
2013-01-17 17:01:00,24.4,9.7,30.03,WSW,257,9.0,15.0,53,0.00,,CLR,0.11,0.00,VWS V14.01,2013-01-17 22:01:00,
2013-01-17 17:11:00,23.8,9.2,30.03,WNW,303,4.0,16.0,53,0.00,,CLR,0.11,0.00,VWS V14.01,2013-01-17 22:11:00,
2013-01-17 17:21:00,23.3,9.1,30.05,West,259,6.0,11.0,54,0.00,,CLR,0.11,0.00,VWS V14.01,2013-01-17 22:21:00,
2013-01-17 17:31:00,22.9,8.3,30.05,North,3,3.0,6.0,53,0.00,,CLR,0.11,0.00,VWS V14.01,2013-01-17 22:31:00,
2013-01-17 17:41:00,22.7,8.6,30.05,WNW,289,4.0,8.0,54,0.00,,CLR,0.11,0.00,VWS V14.01,2013-01-17 22:41:00,
2013-01-17 17:51:00,22.7,6.9,30.06,NW,309,0.0,6.0,50,0.00,,CLR,0.11,0.00,VWS V14.01,2013-01-17 22:51:00,
2013-01-17 18:01:00,22.7,6.4,30.06,North,353,3.0,10.0,49,0.00,,CLR,0.11,0.00,VWS V14.01,2013-01-17 23:01:00,
2013-01-17 18:11:00,22.4,6.2,30.06,West,267,9.0,9.0,49,0.00,,CLR,0.11,0.00,VWS V14.01,2013-01-17 23:11:00,
2013-01-17 18:21:00,22.2,6.0,30.07,West,262,12.0,12.0,49,0.00,,CLR,0.11,0.00,VWS V14.01,2013-01-17 23:21:00,
2013-01-17 18:31:00,22.1,6.3,30.06,WNW,290,1.0,16.0,50,0.00,,CLR,0.11,0.00,VWS V14.01,2013-01-17 23:31:00,
2013-01-17 18:41:00,21.8,4.7,30.06,WNW,282,6.0,9.0,47,0.00,,CLR,0.11,0.00,VWS V14.01,2013-01-17 23:41:00,
2013-01-17 18:51:00,21.4,6.1,30.08,West,281,5.0,10.0,51,0.00,,CLR,0.11,0.00,VWS V14.01,2013-01-17 23:51:00,
2013-01-17 19:01:00,21.4,5.7,30.09,NW,318,3.0,5.0,50,0.00,,CLR,0.11,0.00,VWS V14.01,2013-01-18 00:01:00,
2013-01-17 19:11:00,21.3,4.7,30.09,NW,320,3.0,7.0,48,0.00,,CLR,0.11,0.00,VWS V14.01,2013-01-18 00:11:00,
2013-01-17 19:21:00,21.1,4.9,30.09,WNW,299,4.0,7.0,49,0.00,,CLR,0.11,0.00,VWS V14.01,2013-01-18 00:21:00,
2013-01-17 19:31:00,20.8,5.5,30.08,WNW,295,4.0,7.0,51,0.00,,CLR,0.11,0.00,VWS V14.01,2013-01-18 00:31:00,
2013-01-17 19:41:00,20.6,2.6,30.08,NNW,340,2.0,6.0,45,0.00,,CLR,0.11,0.00,VWS V14.01,2013-01-18 00:41:00,
2013-01-17 19:51:00,20.5,3.0,30.08,West,265,0.0,5.0,46,0.00,,CLR,0.11,0.00,VWS V14.01,2013-01-18 00:51:00,
2013-01-17 20:01:00,20.0,4.8,30.10,NW,321,0.0,4.0,51,0.00,,CLR,0.11,0.00,VWS V14.01,2013-01-18 01:01:00,
2013-01-17 20:11:00,19.7,1.3,30.10,West,264,5.0,5.0,44,0.00,,CLR,0.11,0.00,VWS V14.01,2013-01-18 01:11:00,
2013-01-17 20:21:00,19.7,2.8,30.10,WNW,282,3.0,7.0,47,0.00,,CLR,0.11,0.00,VWS V14.01,2013-01-18 01:21:00,
2013-01-17 20:31:00,19.7,1.8,30.09,NNW,346,3.0,5.0,45,0.00,,CLR,0.11,0.00,VWS V14.01,2013-01-18 01:31:00,
2013-01-17 20:41:00,19.5,1.6,30.09,North,355,3.0,7.0,45,0.00,,CLR,0.11,0.00,VWS V14.01,2013-01-18 01:41:00,
2013-01-17 20:51:00,19.2,1.4,30.08,NNW,343,1.0,5.0,45,0.00,,CLR,0.11,0.00,VWS V14.01,2013-01-18 01:51:00,
2013-01-17 21:01:00,19.2,1.8,30.07,NW,307,0.0,3.0,46,0.00,,CLR,0.11,0.00,VWS V14.01,2013-01-18 02:01:00,
2013-01-17 21:11:00,18.9,2.0,30.07,NNW,336,1.0,4.0,47,0.00,,CLR,0.11,0.00,VWS V14.01,2013-01-18 02:11:00,
2013-01-17 21:21:00,18.8,1.9,30.08,North,354,2.0,4.0,47,0.00,,CLR,0.11,0.00,VWS V14.01,2013-01-18 02:21:00,
2013-01-17 21:31:00,18.6,2.2,30.08,NNW,336,3.0,5.0,48,0.00,,CLR,0.11,0.00,VWS V14.01,2013-01-18 02:31:00,
2013-01-17 21:41:00,18.3,1.9,30.08,NNW,342,0.0,4.0,48,0.00,,CLR,0.11,0.00,VWS V14.01,2013-01-18 02:41:00,
2013-01-17 21:51:00,18.1,1.7,30.08,North,354,2.0,4.0,48,0.00,,CLR,0.11,0.00,VWS V14.01,2013-01-18 02:51:00,
2013-01-17 22:01:00,18.3,2.3,30.07,NW,304,3.0,4.0,49,0.00,,CLR,0.11,0.00,VWS V14.01,2013-01-18 03:01:00,
2013-01-17 22:11:00,18.3,4.1,30.07,WNW,288,3.0,5.0,53,0.00,,CLR,0.11,0.00,VWS V14.01,2013-01-18 03:11:00,
2013-01-17 22:21:00,18.3,2.3,30.06,NW,319,4.0,6.0,49,0.00,,CLR,0.11,0.00,VWS V14.01,2013-01-18 03:21:00,
2013-01-17 22:31:00,18.1,2.2,30.06,WNW,300,0.0,7.0,49,0.00,,CLR,0.11,0.00,VWS V14.01,2013-01-18 03:31:00,
2013-01-17 22:41:00,18.0,1.2,30.06,WNW,297,3.0,7.0,47,0.00,,CLR,0.11,0.00,VWS V14.01,2013-01-18 03:41:00,
2013-01-17 22:51:00,17.8,0.5,30.06,WNW,287,5.0,7.0,46,0.00,,CLR,0.11,0.00,VWS V14.01,2013-01-18 03:51:00,
2013-01-17 23:01:00,17.7,0.0,30.07,NW,307,6.0,10.0,45,0.00,,CLR,0.11,0.00,VWS V14.01,2013-01-18 04:01:00,
2013-01-17 23:11:00,17.7,-0.5,30.07,WNW,293,3.0,10.0,44,0.00,,CLR,0.11,0.00,VWS V14.01,2013-01-18 04:11:00,
2013-01-17 23:21:00,17.5,-0.7,30.06,WSW,257,7.0,10.0,44,0.00,,CLR,0.11,0.00,VWS V14.01,2013-01-18 04:21:00,
2013-01-17 23:31:00,17.2,-1.0,30.05,West,280,4.0,11.0,44,0.00,,CLR,0.11,0.00,VWS V14.01,2013-01-18 04:31:00,
2013-01-17 23:41:00,17.2,-1.4,30.05,NNW,345,0.0,10.0,43,0.00,,CLR,0.11,0.00,VWS V14.01,2013-01-18 04:41:00,
2013-01-17 23:51:00,17.2,0.9,30.05,NNE,24,5.0,7.0,48,0.00,,CLR,0.11,0.00,VWS V14.01,2013-01-18 04:51:00,